RH
30 30 29 26 24 24 22 23 24 23 21 19 18 18 17 16 15 15 14 10 7 8 8 7 6 6 6 6 6 6 7 7 7 7 7 8 8 7 8 8 8 8 7 7 6 7 7 7 8 9 10 10 10 11 10 10 11 9 14 15 13 16 15 14 13 12 13 12 12 11 11 12 11 11 10 9 9 9 9 7 6 5 5 5 4 5 5 5
30 29 29 28 26 25 23 23 23 23 21 19 18 18 18 17 15 12 10 8 6 7 7 6 6 6 7 7 7 7 7 7 7 7 7 9 9 8 9 9 8 8 8 8 7 7 8 8 9 11 12 12 12 13 12 11 11 13 16 15 16 18 13 12 14 12 12 11 12 12 11 12 12 12 11 10 10 11 10 8 6 5 5 5 5 5 6 6
30 29 29 29 28 27 26 24 23 22 21 18 18 18 18 18 16 12 12 10 6 6 7 7 7 7 7 8 8 8 8 8 8 7 8 9 9 9 9 9 9 9 8 8 8 8 9 10 11 14 13 13 14 13 13 13 13 14 16 16 20 19 12 11 12 12 11 11 12 12 12 12 11 12 11 12 12 12 12 10 8 7 6 5 5 5 6 6
30 29 28 28 28 28 28 27 24 24 23 20 18 18 18 18 18 17 17 16 11 8 8 8 7 8 8 9 9 9 10 10 10 9 9 10 11 11 10 10 10 10 9 9 9 9 10 12 14 15 14 14 15 14 16 16 15 16 17 18 20 16 12 12 11 12 12 12 12 12 13 13 12 12 12 12 13 13 11 9 8 7 6 6 6 6 6 6
29 29 28 27 28 28 28 28 26 26 26 24 22 22 22 21 21 19 19 20 17 13 12 11 9 9 9 9 9 11 13 11 13 13 11 12 12 11 11 11 11 10 10 10 10 11 12 14 15 16 16 16 16 16 17 17 16 16 17 18 18 15 13 12 12 13 13 12 13 13 14 13 12 12 12 13 13 13 9 7 7 7 7 7 7 7 7 7
29 30 28 28 28 29 28 28 27 27 27 27 26 26 26 26 24 22 21 21 19 17 17 14 11 11 9 10 10 11 14 11 15 18 14 14 13 13 12 12 12 11 11 11 12 12 14 16 16 17 17 17 18 18 18 17 17 17 18 16 15 15 14 13 13 13 13 12 13 13 13 12 12 13 12 12 13 10 8 7 7 8 8 8 8 9 9 9
29 30 29 29 29 29 29 28 28 28 28 28 29 28 28 28 27 25 24 23 22 19 19 16 12 11 10 12 11 13 15 12 14 17 15 15 15 14 14 14 13 12 12 12 12 13 15 16 17 17 18 18 18 18 18 18 17 17 19 18 15 16 15 14 14 14 14 13 13 13 13 12 13 14 13 12 11 8 8 8 8 8 8 8 9 9 9 9
29 30 29 29 29 29 29 27 27 29 29 28 29 29 28 29 29 28 27 27 26 22 21 19 14 13 12 12 14 17 16 11 11 13 14 15 14 13 13 13 13 13 13 12 12 13 13 15 16 17 19 20 17 18 18 17 18 19 21 20 17 17 16 15 15 15 15 15 14 13 13 13 13 13 14 12 10 8 9 8 8 9 9 9 10 10 10 10
30 30 30 30 29 29 29 28 28 28 28 29 29 29 28 29 29 29 29 29 30 27 24 23 19 17 14 13 18 18 13 10 10 12 13 13 13 13 13 12 12 12 12 11 11 12 13 14 16 17 19 19 17 18 18 17 19 20 19 19 18 17 16 15 15 15 15 15 14 14 15 14 12 13 14 12 9 9 9 9 9 9 10 9 10 9 10 10
31 30 30 30 29 29 29 29 29 28 29 29 29 29 29 30 29 28 28 29 30 28 28 27 24 23 18 17 22 18 12 13 13 13 13 14 15 14 13 11 11 11 11 11 11 12 13 13 15 16 18 18 16 17 17 17 19 19 18 18 18 17 17 16 16 15 15 15 14 16 18 15 14 14 14 11 9 10 10 10 10 9 10 10 10 10 9 10
36 34 32 30 29 30 30 30 29 29 30 30 30 30 30 30 29 28 26 28 29 29 29 29 27 25 20 21 24 18 13 14 13 14 15 16 15 13 12 11 11 11 10 11 11 12 13 13 15 15 17 17 17 17 17 18 20 19 19 19 19 19 18 17 18 17 17 17 16 17 20 18 17 16 15 11 9 11 11 11 10 10 10 9 10 9 9 10
42 39 37 34 31 29 29 30 29 30 30 30 31 30 30 31 29 28 26 27 28 28 29 30 29 26 22 22 20 13 12 13 13 13 14 14 14 13 12 12 12 11 11 11 11 11 13 14 14 15 17 17 18 19 18 20 20 20 20 21 23 22 21 20 20 19 19 19 18 18 18 18 21 18 13 11 11 13 13 12 11 10 10 10 11 10 10 10
53 48 44 39 35 32 30 29 29 29 29 30 31 31 31 30 29 27 27 28 27 27 28 29 30 26 24 22 14 10 11 12 13 13 13 13 13 13 12 12 12 12 12 13 13 13 13 13 13 15 17 17 20 20 19 20 19 20 22 22 23 23 23 21 21 21 20 21 19 18 18 17 22 20 13 12 13 14 13 13 11 11 11 11 12 11 10 10
63 60 56 50 43 37 32 31 30 29 28 28 28 30 30 29 28 27 27 28 25 27 28 29 31 27 26 19 11 12 12 11 12 12 13 14 13 14 13 12 12 12 13 14 15 14 13 13 12 16 17 17 19 19 23 25 22 22 22 24 25 22 24 24 23 23 20 23 21 19 21 18 20 20 14 14 14 14 15 13 12 11 12 12 12 11 10 11
71 69 66 62 56 48 41 37 35 34 32 30 27 27 28 27 27 26 27 26 24 28 30 29 30 27 27 19 10 13 13 13 13 13 14 14 15 15 13 13 12 12 14 14 14 13 13 13 12 17 20 18 18 21 29 29 27 26 20 23 28 23 26 25 24 24 22 24 22 20 24 21 21 20 15 15 15 16 16 15 14 13 14 13 13 12 11 11
75 74 72 70 68 63 56 50 45 42 39 36 30 26 25 24 27 27 27 27 26 30 30 27 26 25 27 21 13 15 15 14 15 15 17 17 16 15 13 13 13 13 14 14 13 13 13 13 15 20 21 22 24 28 30 24 26 30 22 23 28 25 26 25 23 25 24 26 24 22 24 23 23 20 16 17 17 17 18 17 16 14 15 14 13 12 11 11
76 75 75 74 74 73 71 66 59 53 49 46 39 32 28 24 25 26 28 31 29 29 28 27 27 26 26 21 17 18 17 16 16 17 18 18 17 16 14 14 14 14 14 13 12 12 12 14 18 21 22 25 28 28 23 18 21 26 25 25 28 27 26 25 25 25 24 26 25 25 25 24 24 22 19 19 18 19 19 17 16 14 14 14 14 12 12 12
79 76 76 76 75 75 75 75 73 67 61 56 49 42 37 30 27 28 30 32 29 27 27 30 32 27 22 19 19 19 17 17 18 19 19 19 17 16 16 15 14 14 13 13 13 14 15 18 20 22 24 25 28 25 17 18 20 22 26 27 28 28 26 26 26 24 25 27 26 27 27 24 25 24 22 20 19 20 19 17 15 15 15 15 14 12 11 11
83 82 80 79 78 77 75 75 76 75 73 68 59 50 44 41 39 38 36 34 31 28 26 27 27 22 18 19 18 18 18 18 19 20 20 20 19 20 19 16 14 15 15 15 17 18 18 21 23 22 22 22 26 23 16 21 26 25 28 28 28 27 25 28 29 27 27 27 28 28 26 25 24 25 23 21 20 19 18 18 17 17 17 15 13 11 11 12
77 82 84 85 84 83 80 78 77 76 76 75 69 60 52 49 51 50 49 45 36 30 25 25 24 19 19 19 17 18 19 20 21 21 20 20 20 22 21 17 17 18 18 20 21 20 19 22 23 19 19 20 23 23 21 28 30 27 27 27 28 27 26 28 28 29 28 27 28 29 28 27 26 27 25 22 21 21 21 21 20 19 17 14 13 12 11 11
72 74 80 85 88 89 87 84 83 81 78 76 74 72 65 59 57 56 55 52 44 38 33 30 28 24 22 22 20 18 19 21 22 21 21 20 20 21 20 21 22 22 23 24 22 21 20 21 20 18 19 19 21 23 23 26 27 26 25 25 26 28 28 26 25 30 31 27 29 30 28 28 28 28 26 23 24 24 22 22 21 18 15 14 14 12 11 10
75 73 73 75 80 89 91 90 90 88 86 82 79 78 72 67 66 62 59 55 50 45 42 39 37 33 28 26 26 23 21 24 25 23 21 20 22 21 20 23 24 22 25 25 22 24 25 22 19 20 22 21 22 24 24 24 25 26 26 26 27 29 29 28 30 34 33 29 29 31 29 28 29 29 27 26 26 25 21 21 19 16 16 16 14 12 11 10
67 74 76 66 63 74 83 90 94 93 92 89 86 83 76 73 73 71 68 65 57 48 44 44 43 41 37 33 32 30 27 27 26 24 21 21 22 20 19 24 24 23 26 26 23 25 26 24 21 22 23 23 24 26 25 25 24 26 28 26 25 28 27 27 31 34 32 30 30 33 30 27 28 30 32 30 27 26 22 19 18 16 16 16 14 13 11 11
49 63 68 59 60 69 70 74 82 89 94 94 93 89 83 82 82 77 72 69 63 54 48 47 44 42 42 40 36 35 33 30 27 25 23 22 22 21 21 23 25 24 25 26 24 23 22 22 22 23 22 22 24 26 25 24 25 26 28 25 22 25 26 27 31 32 32 34 34 32 28 27 30 34 37 35 29 28 23 20 19 17 16 15 14 13 11 12
35 43 46 47 63 72 68 65 65 72 84 91 95 93 88 89 89 86 80 72 64 57 55 52 49 46 44 46 45 41 39 35 30 28 26 25 23 23 23 21 23 25 24 26 28 26 23 22 22 23 24 22 24 26 25 24 24 24 27 25 22 25 28 31 33 31 33 36 34 31 29 30 32 32 33 33 32 30 27 25 23 17 15 15 14 12 12 13
31 33 32 42 61 67 66 65 59 60 66 74 84 90 91 90 92 94 90 83 68 55 57 57 54 52 47 50 54 52 49 44 37 33 32 30 27 26 27 25 23 25 25 27 29 28 25 22 21 23 24 24 25 26 26 24 23 25 27 26 27 30 33 35 34 31 34 35 32 33 34 32 28 25 30 35 35 33 29 27 26 21 17 14 13 12 12 14
29 30 28 36 48 55 62 62 60 60 59 61 66 75 87 89 92 95 94 92 73 54 59 59 53 54 53 55 58 58 56 52 48 45 40 39 37 34 35 32 28 28 28 29 28 27 27 24 22 23 23 24 25 25 25 25 25 28 30 30 32 33 35 37 35 34 36 36 33 35 37 39 34 26 32 38 34 33 30 28 28 24 18 14 13 12 11 14
25 27 27 29 33 45 58 60 59 58 56 58 57 59 72 79 85 90 94 95 76 59 64 63 56 57 60 64 66 65 64 60 62 62 55 50 47 44 44 41 38 38 35 30 27 27 28 28 25 23 23 23 23 24 25 24 26 32 33 33 33 34 37 40 40 39 41 39 36 38 39 40 39 32 35 38 30 30 31 28 28 24 18 14 12 11 11 12
23 24 25 26 28 37 52 59 58 56 55 56 54 51 56 65 76 86 96 93 71 62 67 64 62 64 66 71 72 73 74 71 73 75 69 61 56 54 54 52 49 49 46 37 32 32 32 31 29 26 25 25 26 28 27 23 27 33 35 35 36 39 41 42 43 43 43 41 36 38 39 36 35 32 35 35 29 30 31 29 31 27 18 15 13 11 11 12
25 25 25 25 26 31 47 57 56 56 56 55 54 51 50 55 65 81 97 86 63 64 69 65 65 68 69 72 74 77 79 79 80 79 75 69 65 62 61 60 58 58 57 50 45 42 39 36 34 32 29 28 31 34 30 28 32 34 35 37 38 43 45 46 49 43 41 43 38 36 39 37 34 34 34 33 31 33 31 28 29 26 19 16 14 12 11 12
25 25 26 27 27 29 40 51 56 56 58 59 56 53 54 56 61 77 83 64 56 68 70 66 67 66 67 71 74 77 79 82 81 78 76 74 72 68 66 66 65 68 69 63 60 56 50 46 43 40 35 33 34 35 34 35 35 34 36 37 37 43 45 47 50 46 43 46 43 41 44 42 38 36 37 35 32 33 31 27 26 25 21 17 14 14 12 12
27 26 27 27 28 30 32 42 55 59 62 68 63 54 61 70 70 71 60 44 55 70 66 66 69 66 68 71 73 75 76 79 79 78 78 77 76 71 68 66 65 72 75 68 66 66 59 55 52 48 43 40 39 39 40 40 37 36 37 36 36 39 37 39 47 49 46 43 41 43 46 46 40 33 34 33 30 31 30 27 25 24 22 18 16 15 13 13
27 26 28 28 28 30 29 37 53 61 65 74 70 60 70 83 73 55 43 40 52 62 61 66 71 69 71 72 74 74 74 77 79 80 78 77 78 74 70 68 64 67 68 63 65 68 63 58 57 53 49 46 43 44 46 45 39 36 35 34 37 38 35 39 46 46 44 41 42 46 46 45 38 29 30 31 28 29 27 25 24 22 21 18 17 17 14 14
28 27 27 27 27 28 31 41 54 59 63 68 70 69 76 83 67 44 39 38 41 51 60 67 72 73 74 75 74 73 76 80 80 80 80 79 80 76 73 72 68 67 67 65 66 67 61 57 56 54 52 49 45 45 47 46 42 38 37 36 37 38 36 39 44 45 48 49 48 48 43 39 36 31 32 32 29 30 28 26 25 22 21 20 18 18 16 15
32 30 28 26 25 25 32 46 55 58 63 67 72 78 80 76 60 43 40 37 37 46 54 61 68 71 74 77 77 75 77 82 81 81 82 80 77 74 72 71 70 70 70 66 65 67 62 57 58 57 54 51 48 48 50 51 50 48 49 48 44 42 39 40 47 51 53 54 52 48 41 36 33 31 30 31 30 31 31 28 27 25 22 20 19 19 18 17
36 32 31 26 23 24 29 43 55 58 65 74 81 83 77 68 55 42 37 34 36 41 46 55 65 69 72 75 77 77 79 82 85 85 83 81 78 74 71 68 69 69 65 62 65 69 67 64 64 63 59 57 54 52 53 53 54 55 56 55 51 49 47 46 50 54 54 51 46 43 39 34 31 29 31 33 30 31 32 29 29 27 24 22 21 20 19 18
41 38 35 28 25 27 27 36 51 60 69 80 85 80 72 64 53 42 37 34 35 39 42 48 56 63 67 69 72 75 79 84 88 87 84 84 80 72 69 68 68 67 63 61 64 65 66 66 66 64 61 60 58 57 59 57 54 56 58 55 52 52 53 51 50 55 59 55 48 42 37 34 31 32 35 35 31 30 31 30 29 28 27 25 23 21 21 20
45 44 39 30 27 28 27 31 42 57 73 83 83 79 74 66 52 41 37 36 37 40 43 43 45 54 61 64 65 68 78 87 89 87 86 87 79 66 65 67 66 65 64 65 66 63 62 63 66 68 65 63 62 61 64 63 58 57 57 54 52 53 55 53 50 52 55 57 55 47 41 38 33 32 36 34 32 32 32 31 30 29 30 28 24 23 23 21
46 47 40 34 32 30 31 35 40 55 75 84 83 77 69 58 46 38 36 39 41 42 45 41 38 44 51 56 61 64 73 80 83 85 85 84 77 65 63 65 62 63 66 68 67 63 61 61 66 71 68 67 70 67 65 65 64 64 61 57 57 56 55 53 52 52 51 53 55 49 45 42 34 32 37 35 33 33 32 31 30 28 29 28 26 26 24 22
50 52 43 35 35 32 34 42 46 56 71 79 79 72 63 51 40 34 35 39 41 42 42 39 39 43 43 45 52 57 63 68 75 83 82 78 74 66 64 63 61 65 68 71 70 66 64 62 65 73 75 73 73 65 59 60 62 65 65 63 62 60 59 57 55 55 53 54 58 54 45 38 33 33 36 34 34 33 31 31 31 30 29 28 27 26 24 23
56 60 45 35 40 40 42 53 57 58 64 71 76 75 70 60 48 40 37 40 44 44 44 44 45 45 44 43 45 48 54 60 67 77 80 76 71 67 64 63 65 70 73 77 78 71 68 67 69 78 80 75 69 61 59 60 59 60 60 59 58 57 59 60 57 57 55 52 55 56 47 35 31 33 34 35 36 35 33 32 31 30 29 28 27 26 25 25
61 60 45 41 49 47 50 62 66 67 68 66 71 76 74 68 62 52 46 50 55 53 55 58 54 48 44 42 40 42 48 52 56 66 73 73 69 66 66 67 71 73 74 78 76 69 71 75 76 79 78 73 69 67 67 65 61 62 60 58 59 58 57 55 53 55 58 54 52 57 53 38 29 30 32 36 38 35 34 32 30 29 27 27 26 25 26 26
62 57 48 48 53 52 59 64 62 69 75 66 64 75 78 74 70 61 53 59 65 63 64 65 59 52 44 39 40 43 46 48 49 52 58 65 68 68 70 72 74 75 74 76 73 69 74 78 77 80 80 76 74 72 71 69 66 66 64 62 62 57 52 53 53 54 58 56 54 58 54 37 30 32 32 36 39 37 36 32 30 30 27 26 26 26 27 26
66 60 51 50 53 59 68 64 53 59 70 67 64 71 77 76 75 72 66 64 66 69 71 68 63 55 46 42 45 46 46 47 47 44 45 54 61 66 71 73 75 76 73 73 72 71 75 77 78 82 85 84 84 80 74 72 70 65 61 60 59 55 54 56 57 58 58 53 51 55 49 35 33 35 32 36 41 40 38 35 30 30 29 28 28 28 28 27
64 63 55 50 53 62 67 60 55 57 62 66 67 68 74 77 76 76 75 68 63 64 67 64 58 51 45 47 51 50 49 49 48 44 41 44 51 61 71 73 73 73 72 71 70 69 72 74 75 80 82 80 78 72 65 65 71 70 64 60 59 59 59 58 61 64 60 51 47 47 41 33 34 35 32 36 40 39 40 39 34 32 31 30 31 30 28 27
61 62 59 56 57 63 65 60 61 63 59 62 68 65 68 75 75 75 80 81 74 69 66 59 52 52 54 57 60 61 59 56 55 52 48 44 44 52 65 72 72 72 72 72 70 70 74 75 73 73 70 63 60 61 59 63 71 72 66 63 63 62 60 62 66 64 56 52 50 43 37 35 34 35 36 38 41 43 42 41 38 35 32 31 31 30 28 28
66 62 56 60 65 66 64 62 66 67 62 62 68 65 62 67 71 72 78 85 85 84 84 77 68 70 71 67 67 68 67 63 59 57 55 50 45 46 57 70 75 73 72 74 73 74 79 78 73 70 65 58 59 65 64 63 65 65 62 63 63 63 64 66 63 54 51 57 52 40 39 38 34 36 40 41 44 47 44 41 40 38 36 34 32 30 28 28
74 70 59 64 74 71 64 63 68 72 70 69 74 73 70 73 77 77 81 89 92 91 95 93 86 84 81 77 78 79 75 72 66 61 58 54 51 52 57 68 77 76 75 77 76 76 80 78 70 69 69 63 65 71 67 62 62 61 61 62 61 63 65 63 57 49 51 54 45 39 43 40 33 38 42 42 46 48 45 42 40 38 37 35 33 32 30 29
76 77 73 74 79 75 69 68 74 80 76 72 75 75 72 80 89 88 89 95 96 93 96 99 94 88 83 79 84 88 83 77 69 63 60 55 54 57 59 64 74 79 79 80 79 80 82 77 70 71 73 67 67 73 70 65 65 63 62 61 60 61 62 58 53 50 52 50 42 44 47 38 34 41 42 43 47 48 45 42 39 40 39 37 35 34 32 31
75 77 80 85 84 78 77 77 80 85 81 75 79 75 67 76 89 91 91 94 97 95 94 97 96 92 86 80 82 86 81 72 65 59 55 53 52 53 56 58 65 78 83 80 80 84 84 80 75 74 77 73 67 70 72 70 67 66 65 64 61 61 61 57 53 52 55 51 44 50 51 38 35 42 44 44 47 48 47 44 41 42 43 41 39 38 35 34
77 74 78 87 86 78 79 78 77 85 86 79 79 75 68 73 81 87 90 91 95 95 93 95 98 96 93 90 88 85 77 70 66 57 51 51 47 43 46 50 56 73 85 82 81 85 86 85 82 81 84 77 66 70 76 72 71 73 71 65 61 60 58 55 54 55 56 52 52 59 54 37 36 45 47 47 47 46 47 45 44 44 44 44 43 42 40 38
77 76 78 86 87 81 80 81 80 87 87 78 75 75 73 73 77 86 92 87 85 90 93 96 98 96 95 96 94 89 84 81 77 67 56 55 50 41 44 50 52 64 80 83 83 85 86 87 86 88 89 79 70 75 78 77 86 85 69 56 55 55 54 55 57 57 56 55 58 58 47 36 42 50 48 47 48 46 45 45 45 45 45 46 45 43 42 40